This is the latest recevied weather packets stored in our database for station/object K8DJB-1. If no packets are shown the sender has not sent any weather packets the latest 1 day(s).
| Time | Temp. | Humidity | Pressure | Rain* | Wind** | Luminosity | Snow |
|---|---|---|---|---|---|---|---|
| 1777989323 | 9.44° C | 66% | 1006.5 hPa | 0 mm | 4.02 m/s, 267° | - | - |
| 1777988914 | 9.44° C | 67% | 1006.4 hPa | 0 mm | 3.58 m/s, 296° | - | - |
| 1777988614 | 9.44° C | 67% | 1006.4 hPa | 0 mm | 2.68 m/s, 302° | - | - |
| 1777988314 | 9.44° C | 66% | 1006.2 hPa | 0 mm | 4.02 m/s, 279° | - | - |
| 1777988014 | 9.44° C | 66% | 1006.5 hPa | 0 mm | 4.02 m/s, 294° | - | - |
| 1777987714 | 9.44° C | 66% | 1006.4 hPa | 0 mm | 4.92 m/s, 291° | - | - |
| 1777987414 | 9.44° C | 68% | 1006.7 hPa | 0 mm | 3.58 m/s, 295° | - | - |
| 1777987114 | 9.44° C | 68% | 1006.6 hPa | 0 mm | 3.13 m/s, 271° | - | - |
| 1777986814 | 9.44° C | 70% | 1006.2 hPa | 0 mm | 1.79 m/s, 274° | - | - |
| 1777986514 | 8.89° C | 69% | 1006.1 hPa | 0 mm | 2.68 m/s, 271° | - | - |
| 1777986214 | 8.89° C | 70% | 1006.2 hPa | 0 mm | 2.24 m/s, 261° | - | - |
| 1777985914 | 8.89° C | 70% | 1005.7 hPa | 0 mm | 2.68 m/s, 268° | - | - |
| 1777985331 | 8.89° C | 71% | 1005.7 hPa | 0 mm | 3.13 m/s, 275° | - | - |
| 1777985031 | 8.89° C | 72% | 1005.5 hPa | 0 mm | 2.68 m/s, 288° | - | - |
| 1777984731 | 8.89° C | 72% | 1006.1 hPa | 0 mm | 4.92 m/s, 287° | - | - |
| 1777984431 | 8.89° C | 73% | 1005.4 hPa | 0 mm | 3.58 m/s, 291° | - | - |
| 1777984131 | 8.89° C | 74% | 1005.1 hPa | 0 mm | 3.58 m/s, 290° | - | - |
| 1777983831 | 8.89° C | 74% | 1005.6 hPa | 0 mm | 2.24 m/s, 252° | - | - |
| 1777983531 | 8.89° C | 75% | 1005.2 hPa | 0 mm | 2.68 m/s, 274° | - | - |
| 1777983231 | 8.89° C | 75% | 1005.1 hPa | 0 mm | 3.58 m/s, 286° | - | - |
| 1777982931 | 8.89° C | 75% | 1004.7 hPa | 0 mm | 3.58 m/s, 268° | - | - |
| 1777982631 | 8.89° C | 75% | 1005 hPa | 0 mm | 4.02 m/s, 265° | - | - |
| 1777982331 | 8.89° C | 74% | 1004.8 hPa | 0 mm | 4.02 m/s, 276° | - | - |
| 1777982031 | 8.89° C | 73% | 1004.4 hPa | 0 mm | 2.68 m/s, 272° | - | - |
| 1777981731 | 9.44° C | 72% | 1004.5 hPa | 0 mm | 3.13 m/s, 291° | - | - |
* Rain latest hour (hover to see other rain measurements)
** Current wind speed in m/s (hover to see current wind gust speed)